星链-3981 (STARLINK-3981 )

导读 | 星芒AI

STARLINK-3981 是 SpaceX Starlink 卫星互联网项目中的一颗低轨道卫星,属于第三代“星链”卫星群。该卫星于2023年发射,旨在为全球用户提供高速、低延迟的宽带互联网服务。它运行在约550公里高的近地轨道,配备先进通信设备和激光链路,以提升网络稳定性和传输效率。作为 Starlink 计划的重要组成部分,STARLINK-3981 有助于扩展覆盖范围,特别是在偏远和网络基础设施薄弱的地区。

基本信息
目录编号:
52687
目录名称:
STARLINK-3981
国际标识:
2022-053AH
轨道中心:
EARTH
卫星名称:
星链-3981
卫星全名:
星链-3981 (STARLINK-3981 )
卫星状态:
在轨 (已飞行1267 天)
发射日期:
2022-05-18 UTC
国别 :
美国 (US)
星等 :
--
轨道信息
数据来源 国际轨道数据 AOE轨道数据
星历时间 2025-11-04T17:34:38+0800
14小时前
查看轨道信息
2025-11-05T00:00:00+0800
8小时前
查看轨道信息
半长轴 6917.863km 6917.855km
偏心率 0.0001519 0.0001734
轨道倾角 53.218° 53.219°
近地点辐角 87.249° 80.945°
升交点赤经 346.572° 345.375°
平近点角 272.867° 293.628°
近地点 538.677km 538.52km
远地点 540.779km 540.92km
周期 95.437分钟 95.437分钟
每日圈数 15.088458 15.088485
详细信息
固有亮度:
5
最大亮度:
2.5
卫星平台:
Starlink v1.5
覆盖范围:
全球
运营商:
太空探索技术公司
运营商所在国:
美国
制造商(研发单位):
太空探索技术公司
制造商所在国:
美国
使用方式:
暂无
卫星简介
星链(Starlink)计划是由太空探索技术公司(SpaceX)提出的一个巨型低轨卫星互联网星座项目,计划在2019年至2024年间在太空搭建由约1.2万颗卫星组成的“星链”网络,其中1584颗将部署在地球上空550千米处的近地轨道,并从2020年开始工作。该卫星仍在工作。
2D轨道图
3D轨道图
轨道高度分析图
轨道倾角分析图
轨道综合分析图
查看轨道综合分析图